Find Local Weather

World > North America > United States > California

San Jose, California Regional Weather

Lat: 37.30N, Lon: 121.85W
Wx Zone: CAZ513
Feedback
Expires:201901220100;;722176
ASUS46 KSTO 220015
RWRCA 

NORTHERN AND CENTRAL CA REGIONAL WEATHER ROUNDUP
NATIONAL WEATHER SERVICE SACRAMENTO CA 
400 PM PST MON JAN 21 2019

NOTE: FAIR INDICATES FEW OR NO CLOUDS BELOW 12,000 FEET WITH NO
SIGNIFICANT WEATHER AND/OR OBSTRUCTIONS TO VISIBILITY.


CAZ006-505>513-220100-
BAY AREA
  
CITY           SKY/WX    TMP DP  RH WIND       PRES   REMARKS
SANTA ROSA     MOSUNNY   58  41  53 NW14      30.23R                  
SAN RAFAEL     N/A      MM  MM  MM MISG
NAPA           SUNNY     58  44  60 W7        30.23R                  
CONCORD        SUNNY     59  39  47 MISG      30.24R                  
OAKLAND CITY   N/A       59  MM  MM MISG
OAKLAND        MOSUNNY   58  43  57 W10       30.24R                  
SAN FRAN CITY  N/A       56  MM  52 MISG
SAN FRAN ARPT  MOSUNNY   58  43  57 CALM      30.24R                  
LIVERMORE      SUNNY     58  35  42 N10       30.22R                  
HAYWARD        SUNNY     58  41  53 W12       30.23R                  
REDWOOD CITY   N/A       57  MM  63 MISG
MOFFETT ARPT   SUNNY     57  41  55 NW8       30.24S                  
SAN JOSE ARPT  MOSUNNY   55  41  59 NW13      30.23S                  
$$

SKY/WX - Weather  TMP - Temperature  DP - Dew Point  RH - Relative Humidity
WIND - Wind Direction/Speed PRES - Barometric Pressure